CST,Max TemperatureF,Mean TemperatureF,Min TemperatureF,Max Dew PointF,MeanDew PointF,Min DewpointF,Max Humidity, Mean Humidity, Min Humidity, Max Sea Level PressureIn, Mean Sea Level PressureIn, Min Sea Level PressureIn, Max VisibilityMiles, Mean VisibilityMiles, Min VisibilityMiles, Max Wind SpeedMPH, Mean Wind SpeedMPH, Max Gust SpeedMPH,PrecipitationIn, CloudCover, Events, WindDirDegrees
2012-12-1,77,66,55,64,62,55,100,79,65,30.08,30.00,29.91,10,10,5,22,9,33,0.00,3,,186
2012-12-2,78,70,62,68,64,61,94,75,61,30.08,30.03,29.99,10,10,10,18,9,24,0.00,4,,190
2012-12-3,78,70,62,64,61,59,94,71,51,30.02,29.97,29.88,10,10,10,23,11,32,0.00,1,,186
2012-12-4,71,58,42,66,51,36,100,69,37,30.31,30.14,29.97,10,10,7,15,6,21,0.00,3,Rain-Thunderstorm,330
2012-12-5,64,48,32,43,37,32,100,70,34,30.34,30.22,30.08,10,10,7,7,0,,0.00,0,,79
2012-12-6,62,48,35,52,45,36,100,84,63,30.07,29.95,29.86,10,10,7,12,2,,0.00,0,,209
2012-12-7,64,53,42,55,51,43,100,89,68,29.90,29.86,29.79,10,8,4,8,1,,0.00,6,,177
2012-12-8,66,58,50,55,53,50,100,87,64,29.94,29.87,29.82,7,5,1,5,0,,0.00,7,,17
2012-12-9,71,56,37,68,51,27,100,83,57,30.04,29.85,29.75,10,7,2,16,4,23,0.03,7,,313
2012-12-10,41,32,21,28,22,19,93,64,45,30.16,30.10,30.03,10,10,7,16,7,28,0.00,2,Snow,327
2012-12-11,51,34,17,27,17,5,100,67,19,30.27,30.19,30.14,10,10,0,5,0,,0.00,0,Fog,225
2012-12-12,55,36,17,27,20,12,100,63,18,30.36,30.28,30.24,10,10,10,12,1,16,0.00,0,,188
2012-12-13,60,42,23,30,25,21,93,59,29,30.32,30.27,30.19,10,10,3,14,2,18,0.00,0,,195
2012-12-14,57,44,32,52,33,27,88,64,33,30.22,30.09,29.85,10,10,7,12,2,17,0.05,4,Rain,189
2012-12-15,66,58,50,55,45,36,100,67,35,29.86,29.80,29.75,10,10,4,15,5,24,0.17,1,Rain,219
2012-12-16,71,58,44,45,40,37,87,62,29,29.80,29.73,29.63,10,10,10,10,2,,0.00,0,,201
2012-12-17,55,44,32,43,39,32,100,83,51,29.87,29.81,29.70,10,8,3,15,2,20,0.00,3,Rain,268
2012-12-18,71,52,32,41,36,32,100,69,27,29.85,29.81,29.75,10,10,5,10,2,17,0.00,0,,237
2012-12-19,71,53,35,66,53,34,100,85,73,29.82,29.68,29.50,10,10,5,22,4,36,0.66,4,Rain-Thunderstorm,181
2012-12-20,55,45,35,55,26,14,100,53,31,30.36,30.09,29.58,10,10,7,30,14,45,0.00,3,,273
2012-12-21,60,44,28,32,23,16,93,54,20,30.44,30.34,30.26,10,10,10,10,4,18,0.00,0,,211
2012-12-22,66,44,23,43,28,19,100,61,17,30.30,30.17,30.02,10,10,10,18,2,22,0.00,0,,204
2012-12-23,68,54,41,54,48,41,100,76,56,30.02,29.89,29.80,10,10,10,14,2,20,0.00,2,,193
2012-12-24,44,37,30,41,32,28,100,80,61,30.06,29.96,29.85,10,7,3,8,1,,0.00,0,,50
2012-12-25,42,37,32,37,33,27,100,90,66,30.05,29.91,29.82,10,5,0,16,7,25,0.49,7,Rain-Snow-Thunderstorm,8
2012-12-26,32,26,19,27,21,16,100,82,69,30.26,30.18,30.05,10,9,2,15,5,20,0.28,3,,273
2012-12-27,37,27,17,34,27,16,100,92,81,30.15,30.06,29.95,10,8,2,6,0,,0.04,2,Snow,180
2012-12-28,37,34,32,37,33,25,100,95,75,30.15,30.01,29.94,10,5,1,12,2,18,0.16,7,Rain-Snow,311
2012-12-29,35,28,21,27,22,18,100,73,56,30.46,30.35,30.16,10,10,5,17,6,28,0.00,0,,279
2012-12-30,41,30,19,34,28,19,100,85,61,30.49,30.39,30.26,10,9,5,4,0,,0.00,1,Rain-Snow,184
2012-12-31,37,36,35,37,36,34,100,99,93,30.27,30.12,30.01,10,6,1,10,1,,0.50,8,Rain-Snow,3